Show Low, AZ

3:20 PM MST on December 07, 2016 (GMT -0700)
Show Low Municipal

Weather History for KSOW - December, 2012

Change the Weather History Date:

Sunday, December 9, 2012

  Actual Average Record
Temperature  
Mean Temperature 32 °F -  
Max Temperature 48 °F 44 °F 66 °F (1981)
Min Temperature 15 °F 25 °F -11 °F (1978)
Degree Days  
Heating Degree Days 32    
Moisture  
Dew Point 15 °F    
Average Humidity 46    
Maximum Humidity 70    
Minimum Humidity 28    
Precipitation  
Precipitation 0.00 in - - ()
Sea Level Pressure  
Sea Level Pressure 30.06 in    
Wind  
Wind Speed 13 mph (SSW)    
Max Wind Speed 21 mph    
Max Gust Speed 30 mph    
Visibility 10 miles    
Events Rain    
Averages and records for this station are not official NWS values.
T = Trace of Precipitation, MM = Missing Value Source: NWS Daily Summary

Daily Weather History Graph

Daily Weather History Graph

Search for Another Location

Airport or City:

Trip Planner

Search our weather history database for the weather conditions in past years. The results will help you decide how hot, cold, wet, or windy it might be!

Date:

Astronomy

Dec. 09, 2012 Rise Set
Actual Time 7:14 AM MST 5:10 PM MST
Civil Twilight 6:47 AM MST 5:38 PM MST
Nautical Twilight 6:15 AM MST 6:09 PM MST
Astronomical Twilight 5:45 AM MST 6:39 PM MST
Moon 2:59 AM MST (12/9) 2:12 PM MST (12/9)
Length of Visible Light 10h 50m
Length of Day
9h 55m
Waning Crescent, 18% of the Moon is Illuminated
Dec 9
Waning Crescent
Dec 13
New
Dec 19
First Quarter
Dec 28
Full
Jan 4
Last Quarter

Hourly Weather History & Observations

Time (MST) Temp. Windchill Dew Point Humidity Pressure Visibility Wind Dir Wind Speed Gust Speed Precip Events Conditions
12:15 AM 35.6 °F 27.1 °F 26.6 °F 70% 30.01 in 10.0 mi South 12.7 mph - N/A   Clear
12:35 AM 35.6 °F 26.6 °F 26.6 °F 70% 30.01 in 10.0 mi South 13.8 mph - N/A Rain Light Rain
12:55 AM 35.6 °F 28.0 °F 26.6 °F 70% 30.01 in 10.0 mi South 10.4 mph - N/A   Clear
1:15 AM 35.6 °F 27.1 °F 24.8 °F 65% 30.01 in 10.0 mi South 12.7 mph - N/A   Clear
1:35 AM 35.6 °F 27.1 °F 24.8 °F 65% 30.00 in 10.0 mi South 12.7 mph - N/A   Clear
1:55 AM 35.6 °F 26.6 °F 24.8 °F 65% 30.00 in 10.0 mi South 13.8 mph - N/A   Clear
2:15 AM 35.6 °F 26.6 °F 24.8 °F 65% 30.00 in 10.0 mi South 13.8 mph 19.6 mph N/A   Clear
2:35 AM 35.6 °F 26.6 °F 24.8 °F 65% 30.00 in 10.0 mi South 13.8 mph - N/A   Clear
2:55 AM 35.6 °F 27.1 °F 24.8 °F 65% 30.00 in 10.0 mi South 12.7 mph 18.4 mph N/A   Clear
3:15 AM 35.6 °F 27.1 °F 24.8 °F 65% 29.99 in 10.0 mi South 12.7 mph - N/A   Clear
3:35 AM 35.6 °F 27.1 °F 23.0 °F 60% 30.00 in 10.0 mi South 12.7 mph - N/A   Clear
3:55 AM 35.6 °F 27.1 °F 23.0 °F 60% 30.00 in 10.0 mi South 12.7 mph - N/A   Clear
4:15 AM 35.6 °F 28.6 °F 21.2 °F 56% 30.00 in 10.0 mi South 9.2 mph - N/A   Clear
4:35 AM 35.6 °F 27.1 °F 19.4 °F 52% 30.00 in 10.0 mi South 12.7 mph - N/A   Clear
4:55 AM 33.8 °F 24.3 °F 19.4 °F 56% 29.99 in 10.0 mi South 13.8 mph - N/A   Clear
5:15 AM 33.8 °F 26.4 °F 19.4 °F 56% 30.00 in 10.0 mi South 9.2 mph - N/A   Clear
5:35 AM 32.0 °F 23.0 °F 17.6 °F 55% 30.00 in 10.0 mi South 11.5 mph - N/A   Clear
5:55 AM 32.0 °F 22.5 °F 17.6 °F 55% 30.00 in 10.0 mi South 12.7 mph - N/A   Clear
6:15 AM 32.0 °F 24.2 °F 15.8 °F 51% 30.01 in 10.0 mi South 9.2 mph - N/A   Clear
6:35 AM 32.0 °F 24.2 °F 17.6 °F 55% 30.00 in 10.0 mi South 9.2 mph - N/A   Clear
6:55 AM 32.0 °F 25.6 °F 15.8 °F 51% 30.00 in 10.0 mi South 6.9 mph - N/A   Clear
7:15 AM 33.8 °F 24.8 °F 17.6 °F 52% 29.99 in 10.0 mi South 12.7 mph - N/A   Clear
7:35 AM 35.6 °F 27.1 °F 15.8 °F 44% 29.99 in 10.0 mi SSW 12.7 mph - N/A   Clear
7:55 AM 35.6 °F 26.2 °F 17.6 °F 48% 29.99 in 10.0 mi South 15.0 mph - N/A   Clear
8:15 AM 37.4 °F 28.2 °F 17.6 °F 45% 29.99 in 10.0 mi South 16.1 mph 21.9 mph N/A   Clear
8:35 AM 39.2 °F 30.5 °F 19.4 °F 45% 30.00 in 10.0 mi South 16.1 mph 19.6 mph N/A   Clear
8:55 AM 39.2 °F 31.6 °F 19.4 °F 45% 30.01 in 10.0 mi SSW 12.7 mph 19.6 mph N/A   Clear
9:15 AM 41.0 °F 33.5 °F 19.4 °F 42% 30.01 in 10.0 mi SSW 13.8 mph - N/A   Clear
9:35 AM 41.0 °F 33.5 °F 19.4 °F 42% 30.02 in 10.0 mi SSW 13.8 mph 18.4 mph N/A   Clear
9:55 AM 42.8 °F 35.4 °F 19.4 °F 39% 30.02 in 10.0 mi SSW 15.0 mph 23.0 mph N/A   Clear
10:15 AM 44.6 °F 37.4 °F 19.4 °F 37% 30.03 in 10.0 mi SW 16.1 mph 20.7 mph N/A   Clear
10:35 AM 44.6 °F 37.8 °F 19.4 °F 37% 30.04 in 10.0 mi SW 15.0 mph 20.7 mph N/A   Clear
10:55 AM 46.4 °F 39.5 °F 19.4 °F 34% 30.04 in 10.0 mi SW 17.3 mph 23.0 mph N/A   Clear
11:15 AM 46.4 °F 40.4 °F 21.2 °F 37% 30.03 in 10.0 mi SW 13.8 mph 18.4 mph N/A   Clear
11:35 AM 48.2 °F - 21.2 °F 34% 30.02 in 10.0 mi WSW 12.7 mph 19.6 mph N/A   Clear
11:55 AM 48.2 °F - 21.2 °F 34% 30.01 in 10.0 mi SW 15.0 mph 18.4 mph N/A   Partly Cloudy
12:15 PM 48.2 °F - 21.2 °F 34% 30.00 in 10.0 mi SW 11.5 mph - N/A   Mostly Cloudy
12:35 PM 46.4 °F 41.1 °F 17.6 °F 32% 30.00 in 10.0 mi WNW 11.5 mph - N/A   Overcast
12:55 PM 46.4 °F 40.4 °F 15.8 °F 29% 29.98 in 10.0 mi WNW 13.8 mph 20.7 mph N/A   Mostly Cloudy
1:15 PM 46.4 °F 39.5 °F 15.8 °F 29% 29.98 in 10.0 mi NNW 17.3 mph 23.0 mph N/A   Scattered Clouds
1:35 PM 44.6 °F 37.8 °F 14.0 °F 29% 29.99 in 10.0 mi NW 15.0 mph 25.3 mph N/A   Mostly Cloudy
1:55 PM 44.6 °F 36.4 °F 14.0 °F 29% 30.00 in 10.0 mi NW 20.7 mph 26.5 mph N/A   Mostly Cloudy
2:15 PM 44.6 °F 36.9 °F 14.0 °F 29% 30.00 in 10.0 mi NW 18.4 mph 26.5 mph N/A   Mostly Cloudy
2:35 PM 41.0 °F 31.6 °F 14.0 °F 33% 30.01 in 10.0 mi North 20.7 mph 27.6 mph N/A   Overcast
2:55 PM 41.0 °F 32.2 °F 14.0 °F 33% 30.03 in 10.0 mi NNW 18.4 mph 29.9 mph N/A   Mostly Cloudy
3:15 PM 41.0 °F 32.2 °F 12.2 °F 31% 30.04 in 10.0 mi NW 18.4 mph 25.3 mph N/A   Mostly Cloudy
3:35 PM 39.2 °F 29.6 °F 10.4 °F 31% 30.04 in 10.0 mi NNW 19.6 mph 27.6 mph N/A   Partly Cloudy
3:55 PM 39.2 °F 29.6 °F 8.6 °F 28% 30.05 in 10.0 mi NNW 19.6 mph 28.8 mph N/A   Clear
4:15 PM 37.4 °F 26.9 °F 6.8 °F 28% 30.07 in 10.0 mi NNW 20.7 mph 28.8 mph N/A   Clear
4:35 PM 37.4 °F 29.3 °F 8.6 °F 30% 30.08 in 10.0 mi North 12.7 mph 21.9 mph N/A   Clear
4:55 PM 33.8 °F 24.8 °F 14.0 °F 44% 30.10 in 10.0 mi NNE 12.7 mph 20.7 mph N/A   Clear
5:15 PM 32.0 °F 24.2 °F 14.0 °F 48% 30.12 in 10.0 mi NNE 9.2 mph - N/A   Clear
5:35 PM 30.2 °F 20.8 °F 12.2 °F 47% 30.14 in 10.0 mi NNE 11.5 mph - N/A   Clear
5:55 PM 28.4 °F 19.1 °F 10.4 °F 47% 30.15 in 10.0 mi NE 10.4 mph 20.7 mph N/A   Clear
6:15 PM 26.6 °F 17.5 °F 10.4 °F 51% 30.15 in 10.0 mi NE 9.2 mph - N/A   Clear
6:35 PM 24.8 °F 16.9 °F 10.4 °F 54% 30.16 in 10.0 mi NE 6.9 mph - N/A   Clear
6:55 PM 24.8 °F 16.1 °F 8.6 °F 50% 30.17 in 10.0 mi NE 8.1 mph - N/A   Clear
7:15 PM 23.0 °F 14.7 °F 8.6 °F 54% 30.18 in 10.0 mi ENE 6.9 mph - N/A   Clear
7:35 PM 23.0 °F 13.9 °F 6.8 °F 50% 30.18 in 10.0 mi NE 8.1 mph - N/A   Clear
7:55 PM 23.0 °F 13.1 °F 6.8 °F 50% 30.18 in 10.0 mi NE 9.2 mph - N/A   Clear
8:15 PM 23.0 °F 11.7 °F 5.0 °F 46% 30.17 in 10.0 mi NE 11.5 mph - N/A   Clear
8:35 PM 23.0 °F 13.1 °F 3.2 °F 43% 30.18 in 10.0 mi ENE 9.2 mph - N/A   Clear
8:55 PM 23.0 °F 11.7 °F 1.4 °F 39% 30.18 in 10.0 mi NE 11.5 mph - N/A   Clear
9:15 PM 21.2 °F 10.9 °F -0.4 °F 39% 30.19 in 10.0 mi NE 9.2 mph - N/A   Clear
9:35 PM 19.4 °F 8.6 °F -0.4 °F 42% 30.18 in 10.0 mi NE 9.2 mph - N/A   Clear
9:55 PM 21.2 °F 8.9 °F -0.4 °F 39% 30.18 in 10.0 mi NE 12.7 mph - N/A   Clear
10:15 PM 21.2 °F 8.9 °F -0.4 °F 39% 30.18 in 10.0 mi NE 12.7 mph - N/A   Clear
10:35 PM 19.4 °F 9.5 °F -0.4 °F 42% 30.20 in 10.0 mi NE 8.1 mph - N/A   Clear
10:55 PM 19.4 °F 9.5 °F -0.4 °F 42% 30.20 in 10.0 mi NE 8.1 mph - N/A   Clear
11:15 PM 17.6 °F 5.7 °F -0.4 °F 45% 30.19 in 10.0 mi NE 10.4 mph - N/A   Clear
11:35 PM 17.6 °F 6.4 °F -0.4 °F 45% 30.19 in 10.0 mi NE 9.2 mph - N/A   Clear
11:55 PM 15.8 °F 3.4 °F -0.4 °F 49% 30.18 in 10.0 mi NE 10.4 mph - N/A   Clear